Location: Poprad
(49.0500°N, 20.3000°E)
Time: 10:04:23
(UTC+01:00)

ISS - Pass Details

Date: 28 January 2021
Orbit: 417 x 422 km, 51.6° (Epoch: 07 March)

Event Time Altitude Azimuth Distance (km) Brightness Sun altitude
Rises 18:49:36 0° 286° (WNW) 2,375 1.3 -22.9°
Reaches altitude 10° 18:51:43 10° 289° (WNW) 1,510 0.0 -23.2°
Enters shadow 18:54:02 39° 306° (NW) 653 -2.5 -23.6°
